| time (UTC) | temp F | wind direction | speed knots | gust knots | rain 1hr in | rain 24hr in | rain mn in | humidity % | barometer mb |
| 20260504002523 | 56 | 270 | 0.9 | 1.7 | 0.00 | 0.00 | 0.00 | 43 | 1018.5 |
| 20260504000531 | 58 | 250 | 1.7 | 2.6 | 0.00 | 0.00 | 0.00 | 41 | 1018.3 |
| 20260503235515 | 59 | 238 | 2.6 | 3.5 | 0.00 | 0.00 | 0.00 | 40 | 1018.3 |
| 20260503234516 | 60 | 255 | 4.3 | 5.2 | 0.00 | 0.00 | 0.00 | 39 | 1018.2 |
| 20260503233518 | 61 | 244 | 5.2 | 7.0 | 0.00 | 0.00 | 0.00 | 38 | 1018.2 |
| 20260503232519 | 61 | 253 | 5.2 | 7.8 | 0.00 | 0.00 | 0.00 | 37 | 1018.0 |
| 20260503231521 | 63 | 253 | 4.3 | 6.1 | 0.00 | 0.00 | 0.00 | 36 | 1018.0 |
| 20260503230522 | 64 | 264 | 6.1 | 11.3 | 0.00 | 0.00 | 0.00 | 36 | 1018.0 |
| 20260503225524 | 64 | 256 | 6.1 | 8.7 | 0.00 | 0.00 | 0.00 | 36 | 1018.0 |
| 20260503224526 | 65 | 230 | 5.2 | 7.0 | 0.00 | 0.00 | 0.00 | 35 | 1018.0 |
| 20260503223527 | 65 | 253 | 6.1 | 8.7 | 0.00 | 0.00 | 0.00 | 35 | 1018.0 |
| 20260503222529 | 66 | 267 | 5.2 | 7.8 | 0.00 | 0.00 | 0.00 | 34 | 1018.1 |
| 20260503221625 | 65 | 281 | 5.2 | 8.7 | 0.00 | 0.00 | 0.00 | 35 | 1018.2 |
| 20260503220515 | 65 | 278 | 3.5 | 6.1 | 0.00 | 0.00 | 0.00 | 36 | 1018.2 |
| 20260503215516 | 66 | 265 | 6.1 | 9.6 | 0.00 | 0.00 | 0.00 | 35 | 1018.3 |
| 20260503213520 | 65 | 259 | 5.2 | 7.0 | 0.00 | 0.00 | 0.00 | 35 | 1018.2 |
| 20260503212522 | 65 | 265 | 6.1 | 7.0 | 0.00 | 0.00 | 0.00 | 35 | 1018.3 |
| 20260503211524 | 65 | 264 | 6.1 | 8.7 | 0.00 | 0.00 | 0.00 | 35 | 1018.3 |
| 20260503210525 | 66 | 261 | 6.1 | 10.4 | 0.00 | 0.00 | 0.00 | 34 | 1018.3 |
| 20260503205527 | 66 | 240 | 5.2 | 8.7 | 0.00 | 0.00 | 0.00 | 35 | 1018.2 |
| 20260503204528 | 66 | 285 | 5.2 | 7.8 | 0.00 | 0.00 | 0.00 | 34 | 1018.3 |
| 20260503203529 | 66 | 276 | 7.8 | 13.9 | 0.00 | 0.00 | 0.00 | 35 | 1018.3 |
| 20260503202531 | 66 | 278 | 5.2 | 8.7 | 0.00 | 0.00 | 0.00 | 35 | 1018.5 |
| 20260503201532 | 65 | 237 | 4.3 | 6.1 | 0.00 | 0.00 | 0.00 | 36 | 1018.5 |
| 20260503200517 | 65 | 259 | 6.1 | 7.8 | 0.00 | 0.00 | 0.00 | 35 | 1018.6 |
| 20260503195518 | 66 | 257 | 7.8 | 13.9 | 0.00 | 0.00 | 0.00 | 35 | 1018.8 |
| 20260503194520 | 65 | 292 | 5.2 | 7.8 | 0.00 | 0.00 | 0.00 | 36 | 1019.0 |
| 20260503193516 | 65 | 260 | 7.8 | 11.3 | 0.00 | 0.00 | 0.00 | 36 | 1019.0 |
| 20260503192524 | 64 | 357 | 4.3 | 6.1 | 0.00 | 0.00 | 0.00 | 35 | 1019.3 |
| 20260503190527 | 64 | 228 | 5.2 | 7.8 | 0.00 | 0.00 | 0.00 | 36 | 1019.5 |
| 20260503185529 | 63 | 281 | 6.1 | 10.4 | 0.00 | 0.00 | 0.00 | 37 | 1019.7 |
| 20260503184531 | 64 | 333 | 4.3 | 6.1 | 0.00 | 0.00 | 0.00 | 38 | 1019.8 |
| 20260503183532 | 63 | 235 | 5.2 | 7.8 | 0.00 | 0.00 | 0.00 | 38 | 1019.9 |
| 20260503182516 | 63 | 268 | 6.1 | 8.7 | 0.00 | 0.00 | 0.00 | 36 | 1020.0 |
| 20260503181518 | 63 | 232 | 7.0 | 10.4 | 0.00 | 0.00 | 0.00 | 37 | 1020.0 |
| 20260503180519 | 63 | 245 | 5.2 | 13.0 | 0.00 | 0.00 | 0.00 | 37 | 1020.1 |
| 20260503175521 | 62 | 236 | 4.3 | 8.7 | 0.00 | 0.00 | 0.00 | 38 | 1020.3 |
| 20260503174522 | 62 | 257 | 7.0 | 10.4 | 0.00 | 0.00 | 0.00 | 38 | 1020.3 |
| 20260503173524 | 61 | 245 | 6.1 | 10.4 | 0.00 | 0.00 | 0.00 | 40 | 1020.4 |
| 20260503172520 | 61 | 265 | 7.0 | 9.6 | 0.00 | 0.00 | 0.00 | 40 | 1020.5 |
| 20260503171615 | 61 | 266 | 6.1 | 12.2 | 0.00 | 0.00 | 0.00 | 40 | 1020.5 |
| 20260503170528 | 61 | 281 | 9.6 | 15.6 | 0.00 | 0.00 | 0.00 | 40 | 1020.6 |
| 20260503150517 | 54 | 276 | 6.1 | 9.6 | 0.00 | 0.00 | 0.00 | 50 | 1021.7 |
| 20260503130524 | 49 | 263 | 4.3 | 7.0 | 0.00 | 0.00 | 0.00 | 62 | 1021.9 |
| 20260503081519 | 43 | 238 | 3.5 | 6.1 | 0.00 | 0.00 | 0.00 | 73 | 1019.6 |
| 20260503080515 | 45 | 265 | 4.3 | 6.1 | 0.00 | 0.00 | 0.00 | 72 | 1019.5 |
| 20260503072515 | 43 | 255 | 3.5 | 5.2 | 0.00 | 0.00 | 0.00 | 75 | 1019.2 |
| 20260503071517 | 42 | 263 | 4.3 | 6.1 | 0.00 | 0.00 | 0.00 | 76 | 1019.1 |
| 20260503070518 | 42 | 263 | 3.5 | 6.1 | 0.00 | 0.00 | 0.00 | 77 | 1019.0 |
| 20260503054531 | 43 | 275 | 4.3 | 7.8 | 0.00 | 0.00 | 0.00 | 73 | 1019.0 |
| 20260503053533 | 44 | 260 | 4.3 | 7.0 | 0.00 | 0.00 | 0.00 | 72 | 1019.0 |
| 20260503052516 | 44 | 270 | 3.5 | 6.1 | 0.00 | 0.00 | 0.00 | 71 | 1019.0 |
| 20260503051516 | 44 | 271 | 3.5 | 7.0 | 0.00 | 0.00 | 0.00 | 71 | 1019.0 |
| 20260503050518 | 45 | 264 | 6.1 | 9.6 | 0.00 | 0.00 | 0.00 | 71 | 1019.0 |
| 20260503045519 | 44 | 296 | 7.0 | 8.7 | 0.00 | 0.00 | 0.00 | 71 | 1019.0 |
| 20260503044521 | 44 | 273 | 4.3 | 9.6 | 0.00 | 0.00 | 0.00 | 70 | 1019.0 |
| 20260503043523 | 44 | 290 | 3.5 | 5.2 | 0.00 | 0.00 | 0.00 | 70 | 1019.0 |
| 20260503042525 | 44 | 265 | 3.5 | 5.2 | 0.00 | 0.00 | 0.00 | 70 | 1019.0 |
| 20260503041526 | 44 | 307 | 2.6 | 6.1 | 0.00 | 0.00 | 0.00 | 69 | 1019.0 |
| 20260503040528 | 44 | 269 | 3.5 | 5.2 | 0.00 | 0.00 | 0.00 | 69 | 1019.0 |
| 20260503035523 | 44 | 271 | 5.2 | 7.8 | 0.00 | 0.00 | 0.00 | 70 | 1019.0 |
| 20260503034519 | 44 | 314 | 2.6 | 5.2 | 0.00 | 0.00 | 0.00 | 70 | 1019.0 |
| 20260503033532 | 44 | 282 | 2.6 | 3.5 | 0.00 | 0.00 | 0.00 | 70 | 1019.0 |
| 20260503032516 | 44 | 292 | 1.7 | 2.6 | 0.00 | 0.00 | 0.00 | 69 | 1019.0 |
| 20260503031518 | 45 | 0.0 | 0.0 | 0.00 | 0.00 | 0.00 | 68 | 1019.0 | |
| 20260503030520 | 46 | 60 | 2.6 | 3.5 | 0.00 | 0.00 | 0.00 | 67 | 1019.0 |
| 20260503025522 | 46 | 338 | 2.6 | 4.3 | 0.00 | 0.00 | 0.00 | 66 | 1019.0 |
| 20260503024524 | 47 | 339 | 3.5 | 5.2 | 0.00 | 0.00 | 0.00 | 66 | 1019.0 |
| 20260503023526 | 47 | 337 | 3.5 | 4.3 | 0.00 | 0.00 | 0.00 | 65 | 1019.2 |
| 20260503021610 | 48 | 298 | 3.5 | 7.8 | 0.00 | 0.00 | 0.00 | 62 | 1019.0 |
| 20260503020612 | 49 | 286 | 4.3 | 7.8 | 0.00 | 0.00 | 0.00 | 63 | 1019.0 |
| 20260503015616 | 48 | 282 | 3.5 | 5.2 | 0.00 | 0.00 | 0.00 | 63 | 1018.9 |
| 20260503014518 | 49 | 309 | 2.6 | 3.5 | 0.00 | 0.00 | 0.00 | 62 | 1018.5 |
| 20260503013519 | 49 | 310 | 2.6 | 3.5 | 0.00 | 0.00 | 0.00 | 60 | 1018.3 |
| 20260503012521 | 50 | 327 | 3.5 | 4.3 | 0.00 | 0.00 | 0.00 | 60 | 1018.2 |
| 20260503011516 | 50 | 303 | 2.6 | 4.3 | 0.00 | 0.00 | 0.00 | 59 | 1018.1 |
| 20260503010524 | 51 | 287 | 4.3 | 7.8 | 0.00 | 0.00 | 0.00 | 58 | 1018.0 |
| 20260503004526 | 51 | 294 | 2.6 | 5.2 | 0.00 | 0.00 | 0.00 | 57 | 1017.6 |
| 20260503003528 | 52 | 275 | 4.3 | 7.0 | 0.00 | 0.00 | 0.00 | 56 | 1017.3 |